Location: Unspecified
(0.0000°N, 0.0000°E)
Time: 22:32:24
(UTC+00:00)

DMSP F15 (USA 147) - Pass Details

Date: 02 October 2020
Orbit: 829 x 845 km, 99.0° (Epoch: 26 October)

Event Time Altitude Azimuth Distance (km) Brightness Sun altitude
Rises 04:36:51 0° 345° (NNW) 3,355 8.1 -18.1°
Reaches altitude 10° 04:39:47 10° 329° (NNW) 2,425 7.3 -17.3°
Enters shadow 04:40:09 11° 326° (NNW) 2,327 7.1 -17.2°
